Location: Cicognara
(44.9500°N, 10.4667°E)
Time: 06:16:22
(UTC+00:00)

Cosmos 1725 Rocket - Visible Passes

Search period start: 26 October 2021 00:00
Search period end: 05 November 2021 00:00
Orbit: 961 x 991 km, 82.9° (Epoch: 25 October)

Date Brightness Start Highest point End Pass type
(mag) Time Alt. Az. Time Alt. Az. Time Alt. Az.
26 Oct 6.4 04:53:24 10° NNE 04:58:12 23° ENE 05:02:59 10° ESE visible
26 Oct 5.7 18:35:09 17° NNE 18:35:09 17° NNE 18:36:27 10° NNE visible
26 Oct 6.1 20:19:46 18° NNW 20:19:46 18° NNW 20:21:39 10° N visible
27 Oct 5.3 18:59:49 26° NNE 18:59:49 26° NNE 19:02:18 10° N visible
27 Oct 6.4 20:44:26 16° NW 20:44:26 16° NW 20:46:27 10° NNW visible
28 Oct 6.9 04:01:25 10° NE 04:03:18 11° ENE 04:05:11 10° ENE visible
28 Oct 5.4 17:32:25 10° SE 17:39:22 17° NE 17:41:24 10° NE visible
28 Oct 4.9 19:15:35 10° SSW 19:23:54 40° NNW 19:27:54 10° N visible
28 Oct 6.8 21:08:24 10° WNW 21:08:29 10° WNW 21:09:26 10° NW visible
29 Oct 6.5 04:25:04 10° NNE 04:29:32 20° ENE 04:33:58 10° ESE visible
29 Oct 4.4 17:56:33 10° SSE 18:02:09 37° E 18:07:47 10° NNE visible
29 Oct 5.3 19:41:53 10° SW 19:47:32 36° WNW 19:53:13 10° N visible
30 Oct 5.7 04:49:57 10° N 04:55:33 34° ENE 05:01:08 10° SE visible
30 Oct 3.8 18:21:27 10° S 18:27:34 66° E 18:33:43 10° NNE visible
30 Oct 6.1 20:08:56 10° WSW 20:13:32 21° WNW 20:18:09 10° NNW visible
31 Oct 4.7 05:15:15 10° N 05:21:23 60° ENE 05:27:29 10° SSE visible
31 Oct 5.2 17:04:24 10° ESE 17:08:28 19° E 17:12:32 10° NE visible
31 Oct 4.1 18:46:58 10° SSW 18:53:10 72° W 18:59:22 10° N visible
31 Oct 6.7 20:37:26 10° W 20:39:45 12° WNW 20:42:04 10° NW visible
01 Nov 6.6 03:56:48 10° NNE 04:00:51 18° ENE 04:04:53 10° ESE visible
01 Nov 4.5 17:28:16 10° SSE 17:33:41 33° E 17:39:05 10° NNE visible
01 Nov 5.1 19:13:06 10° SW 19:18:55 41° WNW 19:24:45 10° N visible
02 Nov 5.9 04:21:32 10° N 04:26:56 30° ENE 04:32:18 10° SE visible
02 Nov 3.9 17:53:01 10° S 17:59:03 58° E 18:05:06 10° NNE visible
02 Nov 6.0 19:39:57 10° WSW 19:44:52 24° WNW 19:49:48 10° NNW visible
03 Nov 4.9 04:46:45 10° N 04:52:47 52° ENE 04:58:49 10° SSE visible
03 Nov 5.3 16:36:30 10° ESE 16:40:02 16° E 16:43:34 10° NE visible
03 Nov 4.0 18:18:23 10° S 18:24:35 82° W 18:30:49 10° N visible
03 Nov 6.6 20:07:56 10° W 20:11:01 14° WNW 20:14:07 10° NNW visible
04 Nov 6.7 03:28:36 10° NNE 03:32:09 15° ENE 03:35:42 10° E visible
04 Nov 4.1 05:12:15 10° N 05:18:28 90° E 05:24:42 10° S visible
04 Nov 4.7 17:00:03 10° SE 17:05:12 28° E 17:10:21 10° NNE visible
04 Nov 4.9 18:44:22 10° SSW 18:50:18 47° WNW 18:56:16 10° N visible
